星链-32798 (STARLINK-32798)

导读

STARLINK-32798是美国于2025年2月18日发射的SpaceX星链系列卫星。星链计划旨在构建全球卫星互联网星座,为全球偏远地区、海洋空域等提供低延迟宽带网络服务,该卫星延续了星链卫星的设计方案,用于补充和完善星链星座的网络覆盖能力,服务全球用户的互联网接入需求。

基本信息
目录编号:
63029
目录名称:
STARLINK-32798
国际标识:
2025-034A
轨道中心:
EARTH
卫星名称:
星链-32798
卫星全名:
星链-32798 (STARLINK-32798)
卫星状态:
在轨 (已飞行481 天)
发射日期:
2025-02-18 UTC
国别 :
美国 (US)
星等 :
--
轨道信息
数据来源 国际轨道数据 AOE轨道数据
星历时间 2026-06-13T16:10:26+0800
1天前
查看轨道信息
2026-06-14T00:00:00+0800
17小时前
查看轨道信息
半长轴 6853.346km 6853.389km
偏心率 0.000114 0.0001164
轨道倾角 53.157° 53.157°
近地点辐角 85.747° 74.505°
升交点赤经 186.465° 184.949°
平近点角 274.366° 282.919°
近地点 474.427km 474.454km
远地点 475.991km 476.05km
周期 94.105分钟 94.106分钟
每日圈数 15.302023 15.301878
详细信息
固有亮度:
5
最大亮度:
2.5
卫星平台:
Starlink V1.0
覆盖范围:
全球
运营商:
太空探索技术公司
运营商所在国:
美国
制造商(研发单位):
太空探索技术公司
制造商所在国:
美国
使用方式:
暂无
卫星简介
Starlink 计划是 SpaceX 推出的全球卫星互联网项目,通过发射低轨道卫星,为全球尤其是偏远地区提供高速、低延迟的互联网服务。自 2019 年起,Starlink 已部署数千颗卫星,旨在缩小全球数字鸿沟,推动互联网普及。该项目还为军事、航空等行业提供通信支持,带来广泛经济效益。
2D轨道图
3D轨道图
轨道高度分析图
轨道倾角分析图
轨道综合分析图
查看轨道综合分析图